Flag for U.S.A. Weather past 2 weeks in Paterson, New Jersey, U.S.A.

Now
21 °F

Overcast.


Feels Like: 13 °F
Forecast: 9 / 25 °F
Wind: 6 mph from Northwest

Location: Essex County Airport

Current Time: Mar 5, 2015 at 8:03:24 PM

Latest Report: Mar 5, 2015 at 6:53 PM


Visibility: 10 mi

Pressure: 30.29 "Hg

Humidity: 65%

Dew point: 11 °F

Location of PatersonLocation

Historic Weather in Paterson — Graph

°F

Paterson temperature yesterday

Maximum temperature yesterday: 45 °F (at 1:53 PM)
Minimum temperature yesterday: 33 °F (at 12:53 AM)
Average temperature yesterday: 39 °F

Past Weeks' High & Low Weather Summary

 TemperatureHumidityPressure
High45 °F (Mar 4, 1:53 PM)93% (Mar 4, 10:53 PM)30.85 "Hg (Mar 4, 10:53 PM)
Low-3 °F (Feb 24, 4:53 AM)25% (Feb 28, 4:53 PM)29.75 "Hg (Feb 18, 11:53 PM)
Average22 °F60%30.22 "Hg
* Reported Feb 18 6:53 PM — Mar 5 6:53 PM, Paterson, Weather by CustomWeather, © 2015

Note: Actual official high and low records may vary slightly from our data, if they occured in-between our weather recording intervals... More about our weather records

Advertising

Paterson weather history for previous 24 hours

 ConditionsComfort  
Time TempWeatherWind HumidityBarometerVisibility
6:53 PM
Thu, Mar 5
21 °FOvercast.6 mph65%30.29 "Hg10 mi
5:53 PM20 °FMostly cloudy.3 mph71%30.26 "Hg5 mi
5:00 PM20 °FOvercast.3 mph78%30.22 "Hg5 mi
3:53 PM20 °FSnow. Overcast.6 mph82%30.22 "Hg1 mi
2:53 PM22 °FLight snow. Mostly cloudy.15 mph62%30.19 "Hg6 mi
1:53 PM22 °FOvercast.6 mph75%30.17 "Hg10 mi
1:03 PM21 °FSnow. Ice fog.3 mph85%30.17 "Hg1 mi
12:53 PM21 °FLight snow. Low clouds.5 mph81%30.19 "Hg1 mi
11:53 AM22 °FLight snow. Ice fog.6 mph82%30.20 "Hg1 mi
10:53 AM24 °FSnow. Ice fog.7 mph84%30.16 "Hg1 mi
9:53 AM26 °FLight snow. Ice fog.9 mph84%30.17 "Hg1 mi
8:53 AM28 °FLight snow. Ice fog.6 mph85%30.14 "Hg1 mi
7:53 AM30 °FLight snow. Ice fog.6 mph82%30.10 "Hg1 mi
6:53 AM32 °FLight snow. Ice fog.No wind85%30.06 "Hg1 mi
5:53 AM32 °FLight snow. Ice fog.3 mph85%30.02 "Hg3 mi
5:01 AM32 °FLight snow. Ice fog.5 mph85%30.00 "Hg2 mi
4:00 AM33 °FLight snow. Fog.No wind85%29.96 "Hg2 mi
2:53 AM35 °FLight snow. Fog.No wind85%29.95 "Hg5 mi
1:53 AM36 °FLight rain. Fog.3 mph92%29.92 "Hg4 mi
12:53 AM37 °FLight rain. Fog.No wind93%29.92 "Hg2 mi
11:53 PM
Wed, Mar 4
38 °FLight rain. Fog.No wind93%29.93 "Hg2 mi
10:53 PM39 °FLight rain. Fog.No wind93%29.94 "Hg1 mi
9:53 PM40 °FLight rain. Fog.No wind89%29.93 "Hg2 mi
8:53 PM40 °FLight rain. Fog.5 mph89%29.92 "Hg3 mi
Weather by CustomWeather, © 2015

See weather overviewHow to use our weather pages